Regional Weather Roundup
Issued by NWS

Home | Current Version | Previous Version | Text Only | Print | Product List | Glossary Off
Versions: 1 2 3 4 5 6 7 8 9 10 11 12 13 14 15 16 17 18 19 20 21 22 23 24 25 26 27 28 29 30 31 32 33 34 35 36 37 38 39 40 41 42 43 44 45 46 47 48 49 50

000
ASUS45 KTFX 200404
RWRMT
MONTANA HOURLY WEATHER ROUNDUP
NATIONAL WEATHER SERVICE GREAT FALLS MT
904 PM MST FRI DEC 19 2014

NOTE: "FAIR" INDICATES FEW OR NO CLOUDS BELOW 12000 FEET WITH NO
SIGNIFICANT WEATHER AND/OR OBSTRUCTIONS TO VISIBILITY.

* THESE STATIONS ARE NOT UNDER NWS QUALITY CONTROL. THEY DO NOT
   REPORT WEATHER SUCH AS PRECIPITATION OR FOG.

MTZ001>007-043-200500-
WEST OF THE DIVIDE
CITY           SKY/WX    TMP DP  RH WIND       PRES   REMARKS
KALISPELL      CLOUDY    36  34  92 S9        29.90S WCI  29
MISSOULA       FOG       30  30 100 CALM      29.99R VSB M1/4
BUTTE          LGT SNOW  32  28  85 SW8G18    29.94R VSB 2 1/2 WCI  25
MULLAN PASS    LGT SNOW  28  25  89 VRB3      29.90R VSB 1/2
* ESSEX        N/A       32  32 100 NE1        N/A
* LINCOLN      N/A       32  30  92 W4G11      N/A
* LOOKOUT PASS N/A       31  31 100 SE2        N/A
* POLSON       N/A       33  33 100 S1         N/A
* RONAN APT    MOCLDY    34  32  92 N/A        N/A
* SEELEY LAKE  N/A       30  29  96 N/A        N/A
* THOMP F APT  MOCLDY    28  27  96 S4         N/A
$$

MTZ008-052>055-200500-
SOUTHWEST MONTANA
CITY           SKY/WX    TMP DP  RH WIND       PRES   REMARKS
BOZEMAN        MOCLDY    32  28  85 CALM      29.93F
DILLON         PTCLDY    27  21  78 W8        29.95R WCI  19
* W YELLOWSTON CLOUDY    28  26  92 SW5G17     N/A   WCI  22
* THREE FORKS  PTCLDY    39  39 100 SW7        N/A   WCI  34
* BOULDER HILL N/A       32  25  75 SW6        N/A   WCI  26
* MONIDA PASS  N/A       26  26 100 SE17       N/A   WCI  13
* RAYNOLDS PAS N/A       27  12  53 S9         N/A   WCI  18
* WHITEHALL    N/A       39  28  65 SW12G23    N/A   WCI  32
* WISE RIVER   N/A       29  28  96 SW6        N/A   WCI  23
$$

MTZ009>010-012-014-046-048-049-054-200500-
EAST SLOPES AND CENTRAL MONTANA
CITY           SKY/WX    TMP DP  RH WIND       PRES   REMARKS
CUT BANK       MOCLDY    36  28  73 W22G30    29.77S WCI  25
GREAT FALLS    MOCLDY    37  30  76 SW14      29.82R WCI  28
HELENA         MOCLDY    32  28  85 W6        29.92R WCI  26
* EAST GLACIER N/A       33  25  72 W10        N/A   WCI  25
* MONARCH      N/A       37  21  52 SW11G18    N/A   WCI  29
* PENDROY      N/A       35  26  70 NW12       N/A   WCI  27
* SWEET GRASS  N/A       37  31  79 W20G26     N/A   WCI  27
$$

MTZ011-013-016-021-035-040-045-047-050-051-200500-
NORTH CENTRAL MONTANA
CITY           SKY/WX    TMP DP  RH WIND       PRES   REMARKS
HAVRE          CLOUDY    37  30  76 SW17      29.79R WCI  27
LEWISTOWN      CLOUDY    41  28  60 SW15      29.83S
* N BAR RANCH  CLOUDY    32  25  75 VRB6      29.84R WCI  26
* CHESTER      N/A       31  28  89 NW1        N/A
* DENTON       N/A       38  29  70 S11        N/A   WCI  31
* JUDITH GAP   N/A       38  28  67 SW6G13     N/A   WCI  33
* LOMA         N/A       38  31  76 S4         N/A
$$

MTZ017>020-022>027-061-062-200500-
NORTHEAST MONTANA
CITY           SKY/WX    TMP DP  RH WIND       PRES   REMARKS
GLASGOW        CLOUDY    28  25  89 E12       29.84R WCI  18
GLENDIVE       CLEAR     23  19  85 CALM      29.89S
JORDAN         MOCLDY    25  23  92 CALM      29.83F
SIDNEY         CLEAR     19  16  88 CALM      29.91S
WOLF POINT     CLEAR     21  18  88 E5        29.88S WCI  14
* BEAVER HILL  N/A       29  22  75 SE1        N/A
* CIRCLE       N/A       31  26  82 N/A        N/A
* LINDSAY DVD  N/A       32  24  72 S2         N/A
* NAVAJO       N/A       21  21 100 S4         N/A
* SACO         N/A       23  22  96 E5         N/A   WCI  16
$$

MTZ028>042-056>058-200500-
SOUTHCENTRAL AND SOUTHEAST MONTANA
CITY           SKY/WX    TMP DP  RH WIND       PRES   REMARKS
BAKER          CLEAR     25  19  78 CALM      29.89S
BILLINGS       LGT SNOW  36  21  54 SW10      29.89R WCI  29
LIVINGSTON     CLOUDY    41  25  53 SW22G35   29.89R
MILES CITY     MOCLDY    30  23  75 S7        29.87S WCI  23
* LAUREL APT   CLOUDY    37  16  42 SW8        N/A   WCI  31
* ROUNDUP APT  MOCLDY    37  19  48 S14        N/A   WCI  28
* ALZADA       N/A       32  23  69 E3         N/A
* LAME DEER    N/A       34  19  54 SW8        N/A   WCI  27
* REED POINT   N/A       30  24  78 E2         N/A
* ROSCOE HILL  N/A       41  13  32 SW12G22    N/A
$$

REGIONAL REPORTS...DAKOTAS
CITY           SKY/WX    TMP DP  RH WIND       PRES   REMARKS
WILLISTON      FOG       18  16  92 CALM      29.91S VSB M1/4
DICKINSON      CLEAR     25  19  78 S6        29.87F WCI  18
BEACH          CLEAR     23  21  92 S3        29.89S
CROSBY         FOG       21  21 100 S6        29.92S VSB M1/4 WCI  13
WATFORD CITY   CLEAR     16  14  92 N3        29.89S
BISMARCK       CLEAR     19  18  96 E3        29.95S
GRAND FORKS    FOG       30  28  92 S7        29.99F WCI  23
FARGO          FOG       32  28  85 S9        30.02R WCI  24
BUFFALO SD     CLEAR     28  21  75 W6        29.83F WCI  21
RAPID CITY     CLEAR     21  18  88 W5        29.91F WCI  14
$$

REGIONAL REPORTS...WYOMING/IDAHO/WASHINGTON
CITY           SKY/WX    TMP DP  RH WIND       PRES   REMARKS
GILLETTE       CLOUDY    30  21  69 S8        29.88F WCI  22
SHERIDAN       PTCLDY    23  18  81 CALM      29.87R
CODY           MOCLDY    41  23  49 W6        29.91R
YELLOWSTONE LA MOCLDY    27  21  78 CALM      30.03R
SALMON         CLOUDY    30  27  89 SE3       30.01R
MULLAN PASS    LGT SNOW  28  25  89 VRB3      29.90S VSB 1/2
SAND POINT     CLOUDY    37  37 100 S6        29.97R WCI  32
SPOKANE        CLOUDY    39  36  89 SW12      29.99R WCI  32

$$




USA.gov is the U.S. government's official web portal to all federal, state and local government web resources and services.